7 * 24
多渠道服务支持
STARLINK-36748是美国太空探索技术公司(SpaceX)星链(Starlink)星座的一颗卫星,于2026年2月7日发射。星链项目计划在近地轨道部署上万颗卫星,提供全球宽带互联网服务。该卫星遵循星链第二代技术标准,配备相控阵天线与氪离子推进系统,工作在Ku、Ka频段,支持星间激光通信,旨在增强全球网络覆盖,尤其服务偏远地区与移动场景。作为批量生产部署的标准化卫星之一,它延续了星链低成本、高冗余的设计思路,助力星座扩容与服务升级。
美国
(US)
| 数据来源 | 国际轨道数据 |
| 星历时间: | 2026-03-13T14:57:41+0800 1天前 查看轨道信息 |
| 半长轴: | 6722.108km |
| 偏心率: | 0.0001313 |
| 轨道倾角: | 97.283° |
| 近地点辐角 | 38.861° |
| 升交点赤经 | 184.000° |
| 平近点角 | 321.275° |
| 近地点: | 343.088km |
| 远地点: | 344.854km |
| 周期: | 91.415分钟 |
| 每日圈数: | 15.752321 |